FW2888 Weather Reports


time (UTC)temp
C
wind
direction
speed
KPH
gust
KPH
rain 1hr
cm
rain 24hr
cm
rain mn
cm
humidity
%
barometer
mb
20260504174639 25 17 3.2 9.7 0.00 0.00 0.00 30 1005.4
20260504173634 24 308 4.8 11.3 0.00 0.00 0.00 34 1005.5
20260504173135 24 103 4.8 11.3 0.00 0.00 0.00 31 1005.7
20260504171634 23 274 3.2 12.9 0.00 0.00 0.00 31 1005.8
20260504170634 23 233 3.2 11.3 0.00 0.00 0.00 33 1005.9
20260504170135 24 293 3.2 11.3 0.00 0.00 0.00 34 1005.8
20260504151118 21 321 3.2 8.0 0.00 0.00 0.00 39 1007.0
20260504150618 21 172 3.2 8.0 0.00 0.00 0.00 38 1007.0
20260504150115 21 353 3.2 8.0 0.00 0.00 0.00 39 1007.0
20260504141109 18 179 1.6 4.8 0.00 0.00 0.00 46 1007.2
20260504140103 18 347 1.6 6.4 0.00 0.00 0.00 46 1007.2
20260504130602 15 327 1.6 9.7 0.00 0.00 0.00 51 1007.9
20260504110547 8 160 0.0 1.6 0.00 0.00 0.00 69 1008.2
20260504082005 9 205 0.0 0.0 0.00 0.00 0.00 63 1008.6
20260504081505 9 205 0.0 0.0 0.00 0.00 0.00 63 1008.5
20260504081001 9 205 0.0 0.0 0.00 0.00 0.00 64 1008.5
20260504080501 9 205 0.0 0.0 0.00 0.00 0.00 63 1008.5
20260504050439 9 20 0.0 0.0 0.00 0.00 0.00 62 1008.6
20260504045935 9 20 0.0 0.0 0.00 0.00 0.00 63 1008.5
20260504044934 9 20 0.0 0.0 0.00 0.00 0.00 68 1008.5
20260504044431 9 20 0.0 0.0 0.00 0.00 0.00 69 1008.3
20260504043930 9 20 0.0 0.0 0.00 0.00 0.00 65 1008.3
20260504042929 9 20 0.0 0.0 0.00 0.00 0.00 63 1008.3
20260504042428 8 20 0.0 0.0 0.00 0.00 0.00 65 1008.2
20260504041926 8 20 0.0 0.0 0.00 0.00 0.00 67 1008.2
20260504041427 8 20 0.0 0.0 0.00 0.00 0.00 63 1008.3
20260504040418 8 20 0.0 0.0 0.00 0.00 0.00 68 1008.4
20260504035917 8 20 0.0 0.0 0.00 0.00 0.00 64 1008.4
20260504035418 8 20 0.0 0.0 0.00 0.00 0.00 67 1008.4
20260504034412 8 20 0.0 0.0 0.00 0.00 0.00 67 1008.4
20260504033911 8 20 0.0 0.0 0.00 0.00 0.00 66 1008.4
20260504033409 8 20 0.0 0.0 0.00 0.00 0.00 64 1008.4
20260504032404 8 20 0.0 0.0 0.00 0.00 0.00 64 1008.3
20260504031903 8 20 0.0 0.0 0.00 0.00 0.00 65 1008.4
20260504031400 8 20 0.0 0.0 0.00 0.00 0.00 66 1008.4
20260504030356 8 20 0.0 0.0 0.00 0.00 0.00 62 1008.4
20260504025350 8 20 0.0 0.0 0.00 0.00 0.00 61 1008.4
20260504024350 8 20 0.0 0.0 0.00 0.00 0.00 65 1008.3
20260504023849 8 20 0.0 0.0 0.00 0.00 0.00 66 1008.4
20260504023351 8 20 0.0 0.0 0.00 0.00 0.00 65 1008.3
20260504022849 8 20 0.0 0.0 0.00 0.00 0.00 63 1008.4
20260504022347 8 20 0.0 0.0 0.00 0.00 0.00 66 1008.5
20260504021849 8 20 0.0 0.0 0.00 0.00 0.00 66 1008.4
20260504021347 8 20 0.0 0.0 0.00 0.00 0.00 65 1008.3
20260504020847 8 20 0.0 0.0 0.00 0.00 0.00 63 1008.4
20260504020349 8 20 0.0 0.0 0.00 0.00 0.00 64 1008.3
20260504015346 8 20 0.0 0.0 0.00 0.00 0.00 65 1008.2
20260504014846 8 20 0.0 0.0 0.00 0.00 0.00 65 1008.3
20260504014345 8 20 0.0 0.0 0.00 0.00 0.00 64 1008.3
20260504013347 8 20 0.0 0.0 0.00 0.00 0.00 61 1008.2
20260504012848 8 20 0.0 0.0 0.00 0.00 0.00 62 1008.2
20260504011841 8 20 0.0 0.0 0.00 0.00 0.00 63 1008.0
20260504010841 9 20 0.0 0.0 0.00 0.00 0.00 61 1007.9
20260504010341 9 20 0.0 0.0 0.00 0.00 0.00 62 1008.0
20260504005840 9 20 0.0 0.0 0.00 0.00 0.00 61 1007.9
20260504004840 10 20 0.0 0.0 0.00 0.00 0.00 59 1007.8
20260504004341 10 20 0.0 0.0 0.00 0.00 0.00 59 1007.9
20260504003839 10 20 0.0 0.0 0.00 0.00 0.00 58 1007.8
20260504003338 10 20 0.0 0.0 0.00 0.00 0.00 56 1007.8
20260504002838 10 20 0.0 0.0 0.00 0.00 0.00 55 1007.7
20260504002337 11 20 0.0 0.0 0.00 0.00 0.00 55 1007.7
20260504001837 11 20 0.0 0.0 0.00 0.00 0.00 54 1007.8
20260504001336 11 20 0.0 1.6 0.00 0.00 0.00 52 1007.7
20260504000838 11 20 0.0 1.6 0.00 0.00 0.00 51 1007.7
20260504000334 12 20 0.0 0.0 0.00 0.00 0.00 49 1007.6
20260503235832 12 20 0.0 0.0 0.00 0.00 0.00 48 1007.6
20260503234832 13 20 0.0 0.0 0.00 0.00 0.00 44 1007.5
20260503234329 13 20 0.0 0.0 0.00 0.00 0.00 43 1007.4
20260503233827 14 17 0.0 0.0 0.00 0.00 0.00 42 1007.4
20260503233328 14 17 0.0 1.6 0.00 0.00 0.00 43 1007.4
20260503232827 15 17 0.0 1.6 0.00 0.00 0.00 40 1007.4
20260503232328 15 20 0.0 3.2 0.00 0.00 0.00 38 1007.4
20260503231828 16 10 0.0 6.4 0.00 0.00 0.00 32 1007.3
20260503231327 16 220 1.6 6.4 0.00 0.00 0.00 34 1007.3
20260503230827 16 259 1.6 4.8 0.00 0.00 0.00 32 1007.2
20260503230326 16 228 0.0 4.8 0.00 0.00 0.00 32 1007.2
20260503225829 16 293 1.6 6.4 0.00 0.00 0.00 31 1007.2
20260503224328 16 143 1.6 8.0 0.00 0.00 0.00 32 1007.3
20260503223826 17 38 1.6 8.0 0.00 0.00 0.00 29 1007.3
20260503223325 17 345 1.6 6.4 0.00 0.00 0.00 30 1007.4
20260503222825 17 290 3.2 14.5 0.00 0.00 0.00 31 1007.5
20260503222324 17 284 3.2 14.5 0.00 0.00 0.00 30 1007.3
20260503221323 17 295 3.2 16.1 0.00 0.00 0.00 31 1007.4
20260503220320 17 339 1.6 9.7 0.00 0.00 0.00 30 1007.3
20260503215820 16 120 1.6 6.4 0.00 0.00 0.00 32 1007.3
20260503214319 17 353 1.6 6.4 0.00 0.00 0.00 30 1007.4
20260503213819 17 195 3.2 6.4 0.00 0.00 0.00 31 1007.5
20260503212318 17 297 3.2 12.9 0.00 0.00 0.00 30 1007.4
20260503211816 17 124 3.2 12.9 0.00 0.00 0.00 30 1007.4
20260503211317 17 252 3.2 8.0 0.00 0.00 0.00 31 1007.4
20260503210817 17 324 3.2 8.0 0.00 0.00 0.00 31 1007.4
20260503210313 17 294 4.8 14.5 0.00 0.00 0.00 33 1007.4
20260503205812 17 272 4.8 14.5 0.00 0.00 0.00 31 1007.5
20260503205311 17 237 4.8 12.9 0.00 0.00 0.00 30 1007.4
20260503204811 17 0 4.8 12.9 0.00 0.00 0.00 30 1007.4
20260503204303 17 294 4.8 12.9 0.00 0.00 0.00 30 1007.5
20260503203804 17 325 3.2 12.9 0.00 0.00 0.00 29 1007.5
20260503203306 17 337 3.2 12.9 0.00 0.00 0.00 30 1007.5
20260503202805 17 342 4.8 14.5 0.00 0.00 0.00 29 1007.5
20260503202304 18 334 3.2 14.5 0.00 0.00 0.00 30 1007.6
20260503201804 18 222 3.2 11.3 0.00 0.00 0.00 32 1007.7
20260503201305 17 328 3.2 11.3 0.00 0.00 0.00 30 1007.7
20260503200805 17 313 3.2 11.3 0.00 0.00 0.00 29 1007.7
20260503200305 17 229 3.2 11.3 0.00 0.00 0.00 30 1007.9
20260503195800 17 33 3.2 16.1 0.00 0.00 0.00 29 1008.0
20260503195300 17 255 4.8 16.1 0.00 0.00 0.00 30 1008.2
20260503194759 17 293 4.8 19.3 0.00 0.00 0.00 31 1008.4
20260503194259 17 43 4.8 19.3 0.00 0.00 0.00 31 1008.4
20260503193757 17 301 4.8 16.1 0.00 0.00 0.00 32 1008.4
20260503193258 17 180 4.8 17.7 0.00 0.00 0.00 29 1008.6
20260503192758 17 341 4.8 17.7 0.00 0.00 0.00 33 1008.7
20260503192258 17 294 3.2 12.9 0.00 0.00 0.00 33 1008.6
20260503191759 17 355 3.2 12.9 0.00 0.00 0.00 33 1008.8
20260503191254 17 286 3.2 8.0 0.00 0.00 0.00 33 1008.8
20260503190251 17 118 4.8 16.1 0.00 0.00 0.00 31 1008.9
20260503185751 17 207 4.8 16.1 0.00 0.00 0.00 31 1009.0
20260503185251 17 226 3.2 9.7 0.00 0.00 0.00 34 1009.0
20260503184752 17 275 3.2 9.7 0.00 0.00 0.00 30 1009.1
20260503184251 17 5 4.8 20.9 0.00 0.00 0.00 33 1009.2
20260503183752 16 10 6.4 20.9 0.00 0.00 0.00 32 1009.4
20260503182251 16 5 3.2 12.9 0.00 0.00 0.00 33 1009.2
20260503181750 16 335 3.2 8.0 0.00 0.00 0.00 34 1009.4
20260503181251 15 326 3.2 16.1 0.00 0.00 0.00 36 1009.5
20260503180750 16 27 4.8 16.1 0.00 0.00 0.00 33 1009.5
20260503180251 16 351 3.2 8.0 0.00 0.00 0.00 33 1009.4
20260503175751 16 318 3.2 11.3 0.00 0.00 0.00 33 1009.4
20260503175251 16 10 4.8 12.9 0.00 0.00 0.00 33 1009.4